Simultaneous Nadir Overpasses (SNOs) Predictions

Prediction of SNOs near equator between AQUA and NPP Satellite Orbit:

Table of predicted SNOs near equator for the next 14.0 days since TLE Epoch: 12/14/2019
Index Date (AQUA) Time (AQUA) AQUA Lat,Lon Date (NPP) Time (NPP) NPP Lat,Lon Distance(km) Time Diff (sec)
1 12/16/2019 07:59:16 -30.00,-100.72 12/16/2019 07:49:16 -30.12,-101.18 46.01 600
2 12/16/2019 08:41:10 2.47, 73.20 12/16/2019 08:32:12 2.37, 72.80 45.93 538
3 12/16/2019 09:29:18 2.02,-118.18 12/16/2019 09:21:35 2.18,-118.85 75.89 463
4 12/19/2019 00:09:01 -5.62, 20.79 12/18/2019 23:59:11 -5.60, 20.56 25.48 590
5 12/19/2019 00:57:16 1.04,-170.61 12/19/2019 00:48:41 0.93,-171.10 55.52 515
6 12/19/2019 01:45:24 3.45, -2.00 12/19/2019 01:38:04 3.62, -2.75 85.38 440
7 12/21/2019 16:25:08 -4.26, 136.96 12/21/2019 16:15:41 -4.22, 136.64 35.17 567
8 12/21/2019 17:13:23 -0.32, -54.44 12/21/2019 17:05:11 -0.44, -55.02 65.21 492
9 12/21/2019 18:01:31 4.81, 114.17 12/21/2019 17:54:34 5.00, 113.33 94.91 417
10 12/24/2019 07:59:21 29.94, 79.28 12/24/2019 07:49:21 30.46, 78.72 78.42 600
11 12/24/2019 08:41:14 -2.85,-106.86 12/24/2019 08:32:10 -2.79,-107.26 44.84 544
12 12/24/2019 09:29:29 -1.74, 61.74 12/24/2019 09:21:40 -1.88, 61.08 74.83 469
13 12/27/2019 00:09:13 6.04,-159.32 12/26/2019 23:59:16 5.98,-159.53 24.44 597
14 12/27/2019 00:57:19 -1.44, 9.32 12/27/2019 00:48:38 -1.36, 8.84 54.55 521
15 12/27/2019 01:45:35 -3.08, 177.90 12/27/2019 01:38:09 -3.25, 177.16 84.49 446




NCC Satellite Simultaneous Nadir Overpasses (SNOs) Prediction Service
